FW5810 Weather Reports


Display with metric or nautical units.
time (UTC)temp
F
wind
direction
speed
MPH
gust
MPH
rain 1hr
in
rain 24hr
in
rain mn
in
humidity
%
barometer
mb
20260507071405 37 68 0.0 0.0 0.00 0.00 0.00 95 1014.0
20260507070901 38 68 0.0 0.0 0.00 0.00 0.00 95 1013.8
20260507070359 38 68 0.0 0.0 0.00 0.00 0.00 95 1014.1
20260507065855 37 68 0.0 0.0 0.00 0.00 0.00 95 1014.0
20260507065352 37 68 0.0 0.0 0.00 0.00 0.00 94 1014.0
20260507064849 38 68 0.0 0.0 0.00 0.00 0.00 94 1014.1
20260507064348 38 68 0.0 0.0 0.00 0.00 0.00 94 1014.2
20260507063845 38 68 0.0 0.0 0.00 0.00 0.00 94 1014.3
20260507063342 38 68 0.0 0.0 0.00 0.00 0.00 93 1014.3
20260507062839 38 68 0.0 0.0 0.00 0.00 0.00 93 1014.2
20260507062335 39 68 0.0 0.0 0.00 0.00 0.00 93 1014.3
20260507061833 39 68 0.0 0.0 0.00 0.00 0.00 92 1014.5
20260507061331 39 68 0.0 0.0 0.00 0.00 0.00 92 1014.5
20260507060830 40 68 0.0 0.0 0.00 0.00 0.00 92 1014.6
20260507060326 40 68 0.0 0.0 0.00 0.00 0.00 91 1014.7
20260507055823 40 68 0.0 0.0 0.00 0.00 0.00 91 1014.7
20260507055318 40 68 0.0 0.0 0.00 0.00 0.00 89 1014.6
20260507054815 41 68 0.0 0.0 0.00 0.00 0.00 89 1014.6
20260507054311 41 68 0.0 0.0 0.00 0.00 0.00 88 1014.6
20260507053808 41 68 0.0 0.0 0.00 0.00 0.00 86 1014.6
20260507053306 42 68 0.0 0.0 0.00 0.00 0.00 84 1014.6
20260507052805 42 68 0.0 0.0 0.00 0.00 0.00 84 1014.8
20260507052301 42 68 0.0 0.0 0.00 0.00 0.00 83 1014.7
20260507051759 42 68 0.0 0.0 0.00 0.00 0.00 82 1014.9
20260507051256 43 68 0.0 0.0 0.00 0.00 0.00 81 1014.7
20260507050752 44 68 0.0 0.0 0.00 0.00 0.00 80 1014.6
20260507050249 44 68 1.0 1.0 0.00 0.00 0.00 77 1014.7
20260507045746 44 68 0.0 0.0 0.00 0.00 0.00 77 1014.9
20260507045242 44 68 0.0 0.0 0.00 0.00 0.00 76 1014.9
20260507044740 44 69 0.0 1.0 0.00 0.00 0.00 75 1014.8
20260507044236 44 69 2.0 1.0 0.00 0.00 0.00 75 1014.9
20260507043732 44 68 2.0 3.0 0.00 0.00 0.00 74 1014.8
20260507043229 44 67 2.0 1.0 0.00 0.00 0.00 75 1014.9
20260507042725 44 63 1.0 1.0 0.00 0.00 0.00 75 1015.0
20260507042220 44 56 1.0 1.0 0.00 0.00 0.00 75 1015.2
20260507041718 44 56 1.0 1.0 0.00 0.00 0.00 73 1015.2
20260507041214 44 56 1.0 1.0 0.00 0.00 0.00 72 1015.3
20260507040711 44 56 0.0 1.0 0.00 0.00 0.00 71 1015.4
20260507040207 44 55 0.0 0.0 0.00 0.00 0.00 71 1015.2
20260507035704 45 55 0.0 1.0 0.00 0.85 0.85 72 1015.2
20260507035159 45 55 0.0 1.0 0.00 0.85 0.85 69 1015.2
20260507034656 46 55 0.0 0.0 0.00 0.85 0.85 69 1015.4
20260507034154 46 55 1.0 1.0 0.00 0.85 0.85 67 1015.3
20260507033652 46 55 0.0 1.0 0.00 0.85 0.85 67 1015.4
20260507033149 46 56 1.0 3.0 0.00 0.85 0.85 66 1015.3
20260507032647 46 46 2.0 4.0 0.00 0.85 0.85 66 1015.2
20260507032142 46 73 4.0 5.0 0.00 0.85 0.85 67 1015.2
20260507031639 46 57 1.0 1.0 0.00 0.85 0.85 68 1015.1
20260507031136 46 27 1.0 1.0 0.00 0.85 0.85 72 1015.2
20260507030633 46 27 0.0 0.0 0.00 0.85 0.85 72 1015.2
20260507030131 46 27 0.0 0.0 0.00 0.85 0.85 71 1015.3
20260507025627 47 27 0.0 0.0 0.00 0.85 0.85 69 1015.2
20260507025124 47 27 0.0 0.0 0.00 0.85 0.85 73 1015.2
20260507024622 47 27 0.0 0.0 0.00 0.85 0.85 73 1015.2
20260507024119 47 27 0.0 0.0 0.00 0.85 0.85 68 1015.2
20260507023614 47 27 0.0 0.0 0.00 0.85 0.85 68 1014.8
20260507023112 47 27 0.0 0.0 0.00 0.85 0.85 66 1015.0
20260507022609 47 27 0.0 0.0 0.00 0.85 0.85 66 1014.9
20260507022104 48 27 0.0 0.0 0.00 0.85 0.85 65 1014.9
20260507021601 48 27 0.0 0.0 0.00 0.85 0.85 64 1014.9
20260507021057 48 27 0.0 0.0 0.00 0.85 0.85 63 1015.0
20260507020555 48 27 2.0 1.0 0.00 0.85 0.85 63 1014.8
20260507020051 48 27 0.0 0.0 0.00 0.85 0.85 64 1014.7
20260507015550 48 27 0.0 0.0 0.00 0.85 0.85 62 1014.7
20260507015047 48 27 1.0 1.0 0.00 0.85 0.85 61 1014.8
20260507014543 48 27 1.0 1.0 0.00 0.85 0.85 60 1014.6
20260507014039 48 27 0.0 0.0 0.00 0.85 0.85 58 1014.4
20260507013536 48 27 2.0 3.0 0.00 0.85 0.85 58 1014.4
20260507013033 48 34 2.0 3.0 0.00 0.85 0.85 58 1014.5
20260507012531 48 37 1.0 1.0 0.00 0.85 0.85 59 1014.4
20260507012026 48 37 0.0 1.0 0.00 0.85 0.85 58 1014.3
20260507011524 48 37 0.0 1.0 0.00 0.85 0.85 59 1014.4
20260507011020 48 37 0.0 1.0 0.00 0.85 0.85 58 1014.3
20260507010514 48 37 2.0 4.0 0.00 0.85 0.85 57 1014.3
20260507010011 49 35 4.0 4.0 0.00 0.85 0.85 56 1014.3
20260507005509 49 25 2.0 7.0 0.00 0.85 0.85 57 1014.2
20260507005005 49 16 3.0 5.0 0.00 0.85 0.85 56 1014.4
20260507004502 49 14 4.0 4.0 0.00 0.85 0.85 54 1014.4
20260507004000 49 348 2.0 3.0 0.00 0.85 0.85 54 1014.3
20260507003454 49 358 3.0 5.0 0.00 0.85 0.85 53 1014.4
20260507002944 49 352 1.0 1.0 0.00 0.85 0.85 54 1014.3
20260507002441 49 352 1.0 3.0 0.00 0.85 0.85 51 1014.1
20260507001938 49 352 1.0 1.0 0.00 0.85 0.85 51 1014.1
20260507001434 50 8 2.0 4.0 0.00 0.85 0.85 51 1014.1
20260507000932 50 350 1.0 4.0 0.00 0.85 0.85 50 1014.2
20260507000427 50 14 2.0 3.0 0.00 0.85 0.85 51 1014.1
20260506235923 50 335 2.0 3.0 0.00 0.85 0.85 51 1014.3
20260506235421 50 336 1.0 4.0 0.00 0.85 0.85 50 1014.4
20260506234916 50 0 2.0 4.0 0.00 0.85 0.85 51 1014.2
20260506234414 50 342 1.0 1.0 0.00 0.85 0.85 51 1014.1
20260506233911 50 330 1.0 5.0 0.00 0.85 0.85 50 1014.3
20260506233407 50 335 2.0 3.0 0.00 0.85 0.85 50 1014.0
20260506232904 50 338 2.0 4.0 0.00 0.85 0.85 50 1014.2
20260506232400 50 352 2.0 4.0 0.00 0.85 0.85 50 1014.2
20260506231856 50 9 6.0 12.0 0.00 0.85 0.85 48 1014.0
20260506231354 50 324 7.0 12.0 0.00 0.85 0.85 48 1014.0
20260506230851 51 344 6.0 7.0 0.00 0.85 0.85 49 1014.0
20260506230348 51 349 3.0 7.0 0.00 0.85 0.85 50 1013.9
20260506225844 51 334 5.0 11.0 0.00 0.85 0.85 48 1014.0
20260506225341 51 340 3.0 5.0 0.00 0.85 0.85 48 1013.8
20260506224833 51 355 5.0 7.0 0.00 0.85 0.85 49 1014.0
20260506224330 51 331 4.0 8.0 0.00 0.85 0.85 46 1013.8
20260506223826 51 6 6.0 10.0 0.00 0.85 0.85 46 1013.7
20260506223321 51 6 9.0 11.0 0.00 0.85 0.85 46 1013.4
20260506222819 51 35 5.0 5.0 0.00 0.85 0.85 45 1013.4
20260506222314 51 25 10.0 12.0 0.00 0.85 0.85 44 1013.3
20260506221812 52 350 7.0 8.0 0.00 0.85 0.85 46 1013.3
20260506221310 52 22 5.0 7.0 0.00 0.85 0.85 47 1013.5
20260506220807 52 5 3.0 4.0 0.00 0.85 0.85 46 1013.4
20260506220302 52 322 2.0 3.0 0.00 0.85 0.85 45 1013.1
20260506215759 52 320 5.0 5.0 0.00 0.85 0.85 45 1013.3
20260506215255 52 13 5.0 8.0 0.00 0.85 0.85 45 1013.2
20260506214751 52 310 5.0 8.0 0.00 0.85 0.85 46 1013.0
20260506214248 52 4 2.0 7.0 0.00 0.85 0.85 48 1013.0
20260506213747 52 22 7.0 11.0 0.00 0.85 0.85 45 1012.9
20260506213243 52 34 7.0 8.0 0.00 0.85 0.85 43 1012.9
20260506212740 52 358 6.0 11.0 0.00 0.85 0.85 43 1013.0
20260506212236 53 341 7.0 14.0 0.00 0.85 0.85 44 1012.9
20260506211726 53 5 10.0 12.0 0.00 0.85 0.85 42 1012.6
20260506211222 53 342 7.0 12.0 0.00 0.85 0.85 44 1012.6
20260506210719 53 4 4.0 11.0 0.00 0.85 0.85 43 1012.8
20260506210216 54 6 9.0 14.0 0.00 0.85 0.85 42 1012.9
20260506205713 53 329 5.0 5.0 0.00 0.85 0.85 43 1012.8
20260506205208 53 297 2.0 5.0 0.00 0.85 0.85 44 1012.8
20260506204706 53 321 7.0 8.0 0.00 0.85 0.85 43 1012.7
20260506204203 53 3 7.0 10.0 0.00 0.85 0.85 41 1012.7
20260506203701 53 331 6.0 7.0 0.00 0.85 0.85 41 1012.8
20260506203158 53 16 8.0 14.0 0.00 0.85 0.85 42 1012.7
20260506202656 53 1 7.0 10.0 0.00 0.85 0.85 43 1012.8
20260506202151 53 359 7.0 12.0 0.00 0.85 0.85 39 1012.7
20260506201649 54 325 5.0 12.0 0.00 0.85 0.85 40 1012.7
20260506201145 54 339 6.0 10.0 0.00 0.85 0.85 40 1012.8
20260506200642 54 354 2.0 5.0 0.00 0.85 0.85 44 1012.8
20260506200138 54 248 2.0 8.0 0.00 0.85 0.85 39 1012.6
20260506195635 55 313 7.0 11.0 0.00 0.85 0.85 39 1012.6
20260506195131 54 38 9.0 11.0 0.00 0.85 0.85 42 1012.5
20260506194629 54 338 5.0 11.0 0.00 0.85 0.85 39 1012.8
20260506194125 54 323 5.0 7.0 0.00 0.85 0.85 41 1012.8
20260506193623 53 283 7.0 16.0 0.00 0.85 0.85 38 1012.8
20260506193120 53 349 8.0 14.0 0.00 0.85 0.85 39 1012.7
20260506192617 54 346 5.0 7.0 0.00 0.85 0.85 41 1012.9
20260506192113 54 294 4.0 8.0 0.00 0.85 0.85 39 1012.8
20260506191609 54 288 6.0 10.0 0.00 0.85 0.85 41 1012.8
20260506191105 55 2 5.0 7.0 0.00 0.85 0.85 45 1012.7
20260506190603 54 302 4.0 8.0 0.00 0.85 0.85 42 1012.7
20260506190100 54 343 6.0 11.0 0.00 0.85 0.85 40 1013.0
20260506185557 55 0 6.0 15.0 0.00 0.85 0.85 42 1012.9
20260506185053 55 359 5.0 10.0 0.00 0.85 0.85 40 1012.7
20260506184551 55 349 10.0 19.0 0.00 0.85 0.85 41 1012.6
20260506184048 54 357 7.0 11.0 0.00 0.85 0.85 49 1012.8
20260506183544 54 302 5.0 8.0 0.00 0.85 0.85 44 1012.6
20260506183040 54 252 7.0 11.0 0.00 0.85 0.85 49 1012.6
20260506182538 55 1 5.0 11.0 0.00 0.85 0.85 45 1012.4
20260506182035 55 355 6.0 11.0 0.00 0.85 0.85 45 1012.3
20260506181533 54 353 5.0 14.0 0.00 0.85 0.85 48 1012.7
20260506181029 54 318 5.0 12.0 0.00 0.85 0.85 47 1012.5
20260506180526 54 6 12.0 19.0 0.00 0.85 0.85 47 1012.5
20260506180023 54 38 6.0 12.0 0.00 0.85 0.85 50 1012.5
20260506175519 54 339 10.0 15.0 0.00 0.85 0.85 48 1012.6
20260506175016 55 0 10.0 14.0 0.00 0.85 0.85 47 1012.4
20260506174514 54 350 14.0 16.0 0.00 0.85 0.85 47 1012.6
20260506174010 55 31 12.0 14.0 0.00 0.85 0.85 46 1012.5
20260506173508 55 304 3.0 4.0 0.00 0.85 0.85 53 1012.7
20260506173005 55 286 8.0 14.0 0.00 0.85 0.85 48 1012.4
20260506172502 54 28 5.0 8.0 0.00 0.85 0.85 50 1012.5
20260506171958 54 320 8.0 18.0 0.00 0.85 0.85 51 1012.3
20260506171455 54 326 6.0 12.0 0.00 0.85 0.85 52 1012.4
20260506170953 54 345 6.0 21.0 0.00 0.85 0.85 52 1012.3
20260506170449 54 302 10.0 12.0 0.00 0.85 0.85 55 1012.4
20260506165942 53 291 4.0 14.0 0.00 0.85 0.85 62 1012.4
20260506165440 54 292 3.0 10.0 0.00 0.85 0.85 60 1012.4
20260506164936 54 307 4.0 10.0 0.00 0.85 0.85 60 1012.4
20260506164433 53 347 13.0 15.0 0.00 0.85 0.85 61 1012.3
20260506163925 53 339 3.0 14.0 0.00 0.85 0.85 63 1012.1
20260506163420 53 313 1.0 5.0 0.00 0.85 0.85 62 1012.1
20260506162915 53 346 5.0 8.0 0.00 0.85 0.85 61 1011.9
20260506162413 53 334 11.0 16.0 0.00 0.85 0.85 59 1012.0
20260506161910 53 337 6.0 8.0 0.00 0.85 0.85 64 1011.9
20260506161408 53 273 4.0 10.0 0.00 0.85 0.85 67 1012.1
20260506160905 53 37 7.0 11.0 0.00 0.85 0.85 61 1012.1
20260506160402 52 332 2.0 5.0 0.00 0.85 0.85 66 1012.1
20260506155900 52 353 4.0 14.0 0.00 0.85 0.85 67 1012.1
20260506155356 52 331 3.0 7.0 0.00 0.85 0.85 64 1012.0
20260506153514 52 347 11.0 12.0 0.00 0.85 0.85 67 1011.7
20260506153011 52 354 7.0 11.0 0.00 0.85 0.85 68 1011.8
20260506152508 50 7 4.0 5.0 0.00 0.85 0.85 74 1011.6
20260506152006 50 348 9.0 11.0 0.00 0.85 0.85 72 1011.6
20260506151503 50 321 3.0 7.0 0.00 0.85 0.85 77 1011.6
20260506151001 50 276 3.0 7.0 0.00 0.85 0.85 79 1011.4
20260506150456 49 339 9.0 11.0 0.00 0.85 0.85 79 1011.3
20260506145954 49 357 6.0 10.0 0.00 0.85 0.85 79 1011.4
20260506145450 49 5 9.0 10.0 0.00 0.85 0.85 82 1011.2
20260506144948 49 357 7.0 12.0 0.00 0.85 0.85 80 1011.0
20260506144444 49 316 3.0 5.0 0.00 0.85 0.85 84 1011.0
20260506143942 49 353 7.0 8.0 0.00 0.85 0.85 84 1011.2
20260506143439 48 49 3.0 5.0 0.00 0.85 0.85 86 1011.0
20260506142938 48 345 1.0 4.0 0.00 0.85 0.85 87 1011.3
20260506142435 48 22 4.0 8.0 0.00 0.85 0.85 86 1010.9
20260506141933 48 344 8.0 10.0 0.00 0.85 0.85 86 1010.9
20260506141430 48 338 4.0 8.0 0.00 0.85 0.85 87 1011.0
20260506140929 48 9 4.0 4.0 0.00 0.85 0.85 90 1011.0
20260506140425 48 324 2.0 3.0 0.00 0.85 0.85 90 1011.1
20260506135922 48 279 2.0 4.0 0.00 0.85 0.85 90 1011.3
20260506135420 47 5 3.0 8.0 0.00 0.85 0.85 91 1010.8
20260506134915 47 0 5.0 8.0 0.00 0.85 0.85 91 1010.7
20260506134412 47 337 3.0 4.0 0.00 0.85 0.85 92 1010.7
20260506133909 47 349 3.0 10.0 0.00 0.85 0.85 91 1010.9
20260506133406 47 306 1.0 1.0 0.00 0.85 0.85 93 1010.5
20260506132902 47 329 5.0 7.0 0.00 0.85 0.85 92 1010.3
20260506132359 47 321 3.0 8.0 0.00 0.85 0.85 93 1010.6
20260506131858 47 332 4.0 5.0 0.00 0.85 0.85 93 1010.5
20260506131353 47 344 2.0 4.0 0.00 0.85 0.85 92 1010.3
20260506130851 46 13 6.0 8.0 0.00 0.85 0.85 92 1010.5
20260506130347 46 33 6.0 10.0 0.00 0.85 0.85 93 1010.3
20260506125845 47 339 4.0 5.0 0.00 0.85 0.85 95 1010.1
20260506125343 46 349 1.0 1.0 0.00 0.85 0.85 95 1010.2
20260506124841 46 330 2.0 7.0 0.00 0.85 0.85 95 1010.0
20260506124338 46 330 2.0 7.0 0.00 0.85 0.85 95 1010.0
20260506123836 46 3 7.0 8.0 0.00 0.85 0.85 95 1009.9
20260506123334 46 264 2.0 5.0 0.00 0.85 0.85 96 1009.8
20260506122831 46 325 5.0 5.0 0.00 0.85 0.85 96 1009.9
20260506122327 46 356 5.0 7.0 0.00 0.85 0.85 96 1009.8
20260506121826 46 337 3.0 4.0 0.00 0.85 0.85 96 1009.7
20260506121322 46 356 3.0 3.0 0.00 0.85 0.85 96 1009.6
20260506120820 46 13 4.0 4.0 0.00 0.85 0.85 96 1009.7
20260506120317 46 337 4.0 5.0 0.00 0.85 0.85 96 1010.1
20260506115814 46 347 2.0 4.0 0.00 0.85 0.85 96 1010.0
20260506115313 46 4 2.0 4.0 0.00 0.85 0.85 96 1009.8
20260506114810 46 351 1.0 3.0 0.00 0.85 0.85 96 1009.7
20260506114308 46 352 3.0 3.0 0.00 0.85 0.85 96 1009.5
20260506113806 46 355 0.0 0.0 0.00 0.85 0.85 96 1009.3
20260506113303 46 356 3.0 3.0 0.00 0.85 0.85 96 1009.3
20260506112800 46 7 0.0 3.0 0.00 0.85 0.85 96 1009.4
20260506112257 46 23 0.0 1.0 0.00 0.85 0.85 96 1009.4
20260506111754 46 356 0.0 4.0 0.00 0.85 0.85 96 1009.6
20260506111252 46 353 2.0 3.0 0.00 0.85 0.85 96 1009.9
20260506110750 45 12 0.0 3.0 0.00 0.85 0.85 96 1009.2
20260506110247 45 348 1.0 3.0 0.00 0.85 0.85 96 1009.7
20260506105743 45 342 1.0 3.0 0.00 0.85 0.85 96 1009.1
20260506105240 45 354 1.0 3.0 0.00 0.85 0.85 96 1008.9
20260506104738 45 351 3.0 3.0 0.00 0.85 0.85 96 1008.5
20260506104235 45 0 3.0 4.0 0.00 0.85 0.85 96 1008.1
20260506103732 45 18 1.0 1.0 0.00 0.85 0.85 96 1008.3
20260506103229 45 3 1.0 3.0 0.00 0.85 0.85 96 1008.3
20260506102727 45 2 3.0 3.0 0.05 0.85 0.85 96 1008.3
20260506102225 45 40 1.0 3.0 0.05 0.85 0.85 96 1007.9
20260506101722 45 32 3.0 4.0 0.00 0.84 0.84 96 1008.1
20260506101218 45 31 1.0 3.0 0.07 0.84 0.84 95 1008.3
20260506100716 45 33 3.0 4.0 0.12 0.84 0.84 95 1008.5
20260506100214 45 31 4.0 4.0 0.12 0.83 0.83 95 1008.7
20260506095712 45 312 0.0 3.0 0.12 0.82 0.82 95 1009.1
20260506095209 45 350 7.0 8.0 0.05 0.81 0.81 95 1009.0
20260506094706 45 5 1.0 5.0 0.12 0.80 0.80 95 1008.8
20260506094204 45 358 5.0 7.0 0.12 0.79 0.79 95 1009.1
20260506093703 45 350 3.0 5.0 0.19 0.78 0.78 95 1008.8
20260506093159 45 20 3.0 5.0 0.12 0.77 0.77 95 1008.8
20260506092657 45 353 1.0 4.0 0.12 0.76 0.76 95 1009.1
20260506092154 45 357 6.0 7.0 0.07 0.75 0.75 95 1008.9
20260506091652 45 336 3.0 4.0 0.05 0.74 0.74 95 1008.8
20260506091149 45 330 5.0 12.0 0.05 0.74 0.74 95 1008.6
20260506090647 45 351 1.0 4.0 0.07 0.73 0.73 95 1008.6
20260506090143 45 12 5.0 10.0 0.12 0.73 0.73 95 1008.3
20260506085640 45 11 6.0 8.0 0.05 0.72 0.72 95 1008.5
20260506085136 45 8 3.0 5.0 0.07 0.71 0.71 95 1008.6
20260506084633 45 353 5.0 8.0 0.07 0.71 0.71 95 1008.6
20260506084130 45 23 5.0 8.0 0.05 0.70 0.70 95 1008.6
20260506083627 45 42 7.0 11.0 0.24 0.70 0.70 95 1008.7
20260506083125 45 344 4.0 12.0 0.24 0.69 0.69 95 1008.9
20260506082621 46 25 4.0 8.0 0.19 0.66 0.66 95 1008.5
20260506082116 46 328 3.0 8.0 0.19 0.64 0.64 95 1008.3
20260506081615 46 5 6.0 5.0 0.24 0.63 0.63 96 1008.6
20260506081112 47 28 4.0 8.0 0.19 0.60 0.60 96 1008.3
20260506080610 47 333 8.0 8.0 0.24 0.59 0.59 96 1008.2
20260506080106 47 334 3.0 7.0 0.24 0.57 0.57 96 1008.4
20260506073050 47 348 5.0 11.0 0.17 0.46 0.46 96 1008.0
20260506072547 47 346 3.0 5.0 0.12 0.44 0.44 96 1008.0
20260506072045 47 12 3.0 7.0 0.12 0.43 0.43 96 1007.8